Location: Azul
(36.7830°S, 59.8500°W)
Time: 23:57:14
(UTC-03:00)

FO-29 - Pass Details

Date: 25 October 2021
Orbit: 799 x 1322 km, 98.5° (Epoch: 28 November)

Event Time Altitude Azimuth Distance (km) Brightness Sun altitude
Rises 21:27:23 0° 160° (SSE) 4,122 13.0 -22.6°
Reaches altitude 10° 21:30:09 10° 152° (SSE) 3,213 12.3 -23.0°
Maximum altitude 21:37:15 43° 82° (E) 1,749 10.4 -24.1°
Enters shadow 21:38:05 42° 67° (ENE) 1,784 10.3 -24.3°
